NANOZOND 1 (RS49S)

Last updated on Thu Jul 03 2025 00:03:07 GMT+0000 (Coordinated Universal Time)

1 57190U 23091AA 25183.57889536 .00020255 00000+0 56720-3 0 9993 2 57190 97.5537 247.6927 0006299 204.4012 155.6934 15.36646316111542
UTC large
Height (km)
Speed (km/s)
/
Latitude / Longitude
Inclination (degrees)
Orbital Period (minutes)
Azimuth
Elevation
Range (km)
Doppler Factor

Next 0 passes for location: London (51.5072 / 0.1276)

Sorry there are no passes over London.